ONEWEB-0715 (55176 NORAD) Tracking and Keplerian Element Data

This shows tracking and keplerian element data for the satellite.

Feedback or suggestion? Click here.




ElementValue
Catalog55176
NameONEWEB-0715
Epoch Orbit130
Epoch Day85.00001157
Epoch Year2023
RAAN257.126
Inclination87.3156
Eccentricity0.0012598
Argument of Perigee342.0886
Mean Anonmoly344.4873
Mean Motion13.93348597
Decay Rate-8.393E-05
L11 55176U 23004AN 23085.00001157 -.00008393 00000+0 -64427-2 0 9994
L22 55176 87.3156 257.1260 0012598 342.0886 344.4873 13.93348597 1304



Live tracking and technical data element details for ONEWEB-0715 (NORAD 55176). ONEWEB-0715 can be tracked NOW for your location showing map with azimuth and elevation plus other details from your city location.







IsCatalogInMostPopularTable: catalog: 55176, numindb: 12
Update: records affected: 1



GetName: 55176 ONEWEB-0715

Hit Count: updated at: Mon, 27 Mar 2023 06:16:19 GMT